• In Deutschland
  • Länderverzeichnis
  • Für 7 Tage
  • Wassertemperatur
  • Satellitenkarten
  • Wetterkarte
  • Widgets
  • user-avatar
    Anmelden

    Stündliche Wetter La Rioja

    Heute, 23 September, Samstag

    Zeit Temperatur Niederschläge Wind Luftdruck Luftfeuchtigkeit
    00:00 +20°C° 0 mm 1 m/S 719 mmHg 41%
    01:00 +19°C° 0 mm 1 m/S 719 mmHg 43%
    02:00 +19°C° 0 mm 1 m/S 719 mmHg 44%
    03:00 +18°C° 0 mm 1 m/S 719 mmHg 45%
    04:00 +18°C° 0 mm 1 m/S 718 mmHg 47%
    05:00 +16°C° 0 mm 1 m/S 718 mmHg 48%
    06:00 +18°C° 0 mm 1 m/S 719 mmHg 46%
    07:00 +18°C° 0 mm 2 m/S 719 mmHg 43%
    08:00 +19°C° 0 mm 2 m/S 719 mmHg 41%
    09:00 +21°C° 0 mm 2 m/S 719 mmHg 38%
    10:00 +22°C° 0 mm 3 m/S 719 mmHg 35%
    11:00 +25°C° 0 mm 3 m/S 718 mmHg 32%
    12:00 +26°C° 0 mm 3 m/S 718 mmHg 30%
    13:00 +27°C° 0 mm 3 m/S 717 mmHg 28%
    14:00 +28°C° 0 mm 4 m/S 716 mmHg 26%
    15:00 +28°C° 0 mm 4 m/S 715 mmHg 25%
    16:00 +29°C° 0 mm 4 m/S 715 mmHg 25%
    17:00 +29°C° 0 mm 4 m/S 714 mmHg 25%
    18:00 +27°C° 0 mm 4 m/S 714 mmHg 27%
    19:00 +26°C° 0 mm 4 m/S 715 mmHg 30%
    20:00 +23°C° 0 mm 4 m/S 715 mmHg 32%
    21:00 +24°C° 0 mm 3 m/S 715 mmHg 34%
    22:00 +22°C° 0 mm 3 m/S 715 mmHg 37%
    23:00 +21°C° 0 mm 2 m/S 715 mmHg 39%

    Morgen, 24 September, Sonntag

    Zeit Temperatur Niederschläge Wind Luftdruck Luftfeuchtigkeit
    00:00 +20°C° 0 mm 2 m/S 715 mmHg 41%
    01:00 +20°C° 0 mm 2 m/S 714 mmHg 43%
    02:00 +19°C° 0 mm 2 m/S 714 mmHg 46%
    03:00 +19°C° 0 mm 2 m/S 714 mmHg 48%
    04:00 +18°C° 0 mm 2 m/S 713 mmHg 51%
    05:00 +17°C° 0 mm 2 m/S 713 mmHg 53%
    06:00 +19°C° 0 mm 2 m/S 713 mmHg 51%
    07:00 +20°C° 0 mm 2 m/S 714 mmHg 48%
    08:00 +21°C° 0 mm 2 m/S 714 mmHg 46%
    09:00 +23°C° 0 mm 2 m/S 714 mmHg 42%
    10:00 +25°C° 0 mm 2 m/S 714 mmHg 37%
    11:00 +27°C° 0 mm 2 m/S 714 mmHg 33%
    12:00 +28°C° 0 mm 2 m/S 713 mmHg 30%
    13:00 +30°C° 0 mm 3 m/S 712 mmHg 27%
    14:00 +31°C° 0 mm 3 m/S 712 mmHg 25%
    15:00 +31°C° 0 mm 3 m/S 712 mmHg 25%
    16:00 +31°C° 0 mm 3 m/S 712 mmHg 25%
    17:00 +31°C° 0 mm 3 m/S 711 mmHg 25%
    18:00 +30°C° 0 mm 3 m/S 712 mmHg 28%
    19:00 +29°C° 0 mm 3 m/S 713 mmHg 31%
    20:00 +28°C° 0 mm 3 m/S 714 mmHg 34%
    21:00 +27°C° 0 mm 2 m/S 715 mmHg 38%
    22:00 +26°C° 0 mm 2 m/S 715 mmHg 42%
    23:00 +25°C° 0 mm 2 m/S 716 mmHg 46%

    übermorgen, 25 September, Montag

    Zeit Temperatur Niederschläge Wind Luftdruck Luftfeuchtigkeit
    00:00 +24°C° 0 mm 2 m/S 716 mmHg 49%
    01:00 +24°C° 0 mm 2 m/S 716 mmHg 53%
    02:00 +23°C° 0 mm 2 m/S 716 mmHg 56%
    03:00 +21°C° 0 mm 2 m/S 716 mmHg 60%
    04:00 +21°C° 0 mm 2 m/S 716 mmHg 64%
    05:00 +20°C° 0 mm 2 m/S 716 mmHg 68%
    06:00 +21°C° 0 mm 2 m/S 717 mmHg 62%
    07:00 +24°C° 0 mm 2 m/S 718 mmHg 57%
    08:00 +25°C° 0 mm 2 m/S 719 mmHg 52%
    09:00 +26°C° 0 mm 2 m/S 719 mmHg 47%
    10:00 +28°C° 0 mm 2 m/S 719 mmHg 43%
    11:00 +29°C° 0 mm 3 m/S 719 mmHg 38%
    12:00 +30°C° 0 mm 3 m/S 718 mmHg 36%
    13:00 +31°C° 0 mm 2 m/S 717 mmHg 35%
    14:00 +32°C° 0 mm 2 m/S 716 mmHg 33%
    15:00 +33°C° 0 mm 3 m/S 716 mmHg 32%
    16:00 +33°C° 0 mm 3 m/S 715 mmHg 32%
    17:00 +33°C° 0 mm 3 m/S 715 mmHg 32%
    18:00 +31°C° 0 mm 3 m/S 715 mmHg 35%
    19:00 +30°C° 0 mm 2 m/S 715 mmHg 39%
    20:00 +29°C° 0 mm 2 m/S 716 mmHg 42%
    21:00 +28°C° 0 mm 2 m/S 716 mmHg 47%
    22:00 +27°C° 0 mm 2 m/S 716 mmHg 51%
    23:00 +27°C° 0 mm 2 m/S 716 mmHg 55%

    26 September, Dienstag

    Zeit Temperatur Niederschläge Wind Luftdruck Luftfeuchtigkeit
    00:00 +26°C° 0 mm 2 m/S 716 mmHg 58%
    01:00 +25°C° 0 mm 2 m/S 715 mmHg 61%
    02:00 +25°C° 0 mm 2 m/S 715 mmHg 64%
    03:00 +24°C° 0 mm 2 m/S 714 mmHg 66%
    04:00 +24°C° 0 mm 2 m/S 714 mmHg 69%
    05:00 +23°C° 0 mm 1 m/S 714 mmHg 72%
    06:00 +24°C° 0 mm 2 m/S 714 mmHg 69%
    07:00 +25°C° 0 mm 2 m/S 715 mmHg 67%
    08:00 +25°C° 0 mm 2 m/S 715 mmHg 65%
    09:00 +27°C° 0 mm 2 m/S 715 mmHg 59%
    10:00 +28°C° 0 mm 2 m/S 714 mmHg 54%
    11:00 +29°C° 0 mm 2 m/S 714 mmHg 48%
    12:00 +30°C° 0,1 mm 3 m/S 713 mmHg 46%
    13:00 +32°C° 0,1 mm 4 m/S 713 mmHg 44%
    14:00 +33°C° 0,1 mm 4 m/S 712 mmHg 42%
    15:00 +32°C° 0,1 mm 4 m/S 712 mmHg 45%
    16:00 +32°C° 0,1 mm 5 m/S 712 mmHg 49%
    17:00 +30°C° 0,1 mm 5 m/S 712 mmHg 52%
    18:00 +29°C° 0,8 mm 5 m/S 713 mmHg 56%
    19:00 +28°C° 0,8 mm 5 m/S 714 mmHg 61%
    20:00 +27°C° 0,8 mm 5 m/S 714 mmHg 65%
    21:00 +26°C° 1,5 mm 5 m/S 715 mmHg 66%
    22:00 +25°C° 1,5 mm 4 m/S 715 mmHg 67%
    23:00 +25°C° 1,5 mm 4 m/S 716 mmHg 68%

    27 September, Mittwoch

    Zeit Temperatur Niederschläge Wind Luftdruck Luftfeuchtigkeit
    00:00 +23°C° 0,3 mm 4 m/S 716 mmHg 68%
    01:00 +22°C° 0,3 mm 5 m/S 716 mmHg 69%
    02:00 +21°C° 0,3 mm 5 m/S 715 mmHg 69%
    03:00 +20°C° 0,6 mm 5 m/S 715 mmHg 70%
    04:00 +20°C° 0,6 mm 5 m/S 715 mmHg 72%
    05:00 +19°C° 0,6 mm 4 m/S 716 mmHg 73%
    06:00 +19°C° 0,6 mm 4 m/S 716 mmHg 73%
    07:00 +19°C° 0,6 mm 4 m/S 717 mmHg 73%
    08:00 +18°C° 0,6 mm 3 m/S 717 mmHg 73%
    09:00 +19°C° 0,2 mm 3 m/S 717 mmHg 70%
    10:00 +20°C° 0,2 mm 3 m/S 717 mmHg 68%
    11:00 +20°C° 0,2 mm 3 m/S 717 mmHg 65%
    12:00 +20°C° 0 mm 3 m/S 716 mmHg 65%
    13:00 +21°C° 0 mm 3 m/S 715 mmHg 66%
    14:00 +21°C° 0 mm 3 m/S 714 mmHg 66%
    15:00 +21°C° 0 mm 3 m/S 714 mmHg 68%
    16:00 +21°C° 0 mm 3 m/S 713 mmHg 70%
    17:00 +21°C° 0 mm 3 m/S 713 mmHg 72%
    18:00 +20°C° 0,1 mm 3 m/S 713 mmHg 75%
    19:00 +20°C° 0,1 mm 2 m/S 714 mmHg 77%
    20:00 +19°C° 0,1 mm 2 m/S 714 mmHg 80%
    21:00 +19°C° 0,1 mm 2 m/S 715 mmHg 80%
    22:00 +19°C° 0,1 mm 2 m/S 715 mmHg 81%
    23:00 +19°C° 0,1 mm 2 m/S 715 mmHg 82%

    28 September, Donnerstag

    Zeit Temperatur Niederschläge Wind Luftdruck Luftfeuchtigkeit
    00:00 +19°C° 0 mm 2 m/S 715 mmHg 82%
    01:00 +19°C° 0 mm 2 m/S 714 mmHg 83%
    02:00 +19°C° 0 mm 2 m/S 714 mmHg 84%
    03:00 +19°C° 0 mm 2 m/S 714 mmHg 84%
    04:00 +18°C° 0 mm 2 m/S 714 mmHg 85%
    05:00 +18°C° 0 mm 2 m/S 714 mmHg 86%
    06:00 +19°C° 0,1 mm 2 m/S 714 mmHg 84%
    07:00 +19°C° 0,1 mm 2 m/S 714 mmHg 83%
    08:00 +19°C° 0,1 mm 2 m/S 715 mmHg 82%
    09:00 +20°C° 0 mm 2 m/S 715 mmHg 76%
    10:00 +21°C° 0 mm 2 m/S 714 mmHg 71%
    11:00 +23°C° 0 mm 2 m/S 714 mmHg 66%
    12:00 +24°C° 0 mm 3 m/S 714 mmHg 61%
    13:00 +25°C° 0 mm 3 m/S 713 mmHg 57%
    14:00 +26°C° 0 mm 3 m/S 712 mmHg 53%
    15:00 +26°C° 0,1 mm 3 m/S 712 mmHg 53%
    16:00 +26°C° 0,1 mm 4 m/S 712 mmHg 54%
    17:00 +26°C° 0,1 mm 4 m/S 712 mmHg 55%
    18:00 +25°C° 0 mm 3 m/S 713 mmHg 60%
    19:00 +24°C° 0 mm 3 m/S 714 mmHg 65%
    20:00 +24°C° 0 mm 2 m/S 714 mmHg 69%
    21:00 +23°C° 0 mm 2 m/S 715 mmHg 72%
    22:00 +23°C° 0 mm 2 m/S 715 mmHg 75%
    23:00 +22°C° 0 mm 1 m/S 715 mmHg 78%
    Mehr zeigen